Find Starlink 31745

NORAD ID: 60329 Int'l Des: 2024-136 Owner: SPXS Country: US Constellation: starlink operational
LEOCIRCULAR

当前视图

正在加载3D地球...

About Starlink 31745

Starlink 31745 (NORAD 60329) is a starlink constellation satellite (v2 mini) launched Aug 2, 2024 by SPXS of US. It operates in LEO, CIRCULAR orbit with a mass of 730.00 kg.

即将过境

Passes for default location (London). Set your location on the main map for personalized predictions.

高度历史

Loading altitude history...

两行轨道根数

1 60329U 24136A 26235.66907975 -.00000173 00000-0 61811-5 0 9997
2 60329 53.1603 19.0897 0001208 92.9281 267.1859 15.31706999116451
Epoch: Aug 23, 2026 • Age: 14 hours

当前状态

高度 471.7 km
远地点 / 近地点 N/A
速度 7.63 km/s
星下点 0.24°N, 48.3°W
发射日期 Aug 2, 2024
运行时间 2 years
类型 internet

技术详情

分类 Payload
质量 730.00 kg
干质量 700.00 kg
总质量 730.00 kg
长度 0.30 m
直径 4.10 m
跨度 29.00 m
形状 Box + pan
制造商 SPXS
平台类型 Starlink V2M
阶段状态 In Orbit
所有者/国家 SPXS/US

Most Searched